^^
Paulen-Weather Station Historical Data
Daily Summary for May 23, 2022 Units:  Both    English   Metric
Daily Weekly Monthly Yearly Custom
  High: Low: Average:
Temperature: 55.4 °F /  13 °C 51.8 °F /  11 °C 53.2 °F /  11.8 °C
Dew Point: 51.8 °F /  11 °C 51.8 °F /  11 °C 51.8 °F /  11 °C
Humidity: 97% 89% 95%
Wind Speed: 11.2mph /  18km/h - 2.4mph /  3.8km/h
Wind Gust: 9.9mph /  16km/h - -
Wind- - ESE
Pressure: 29.9 in /  1011.55 hPa 29.8 in /  1009.01 hPa -
Precipitation: 0 in /  0 mm    
Historical Graphs
 
 
Tabular Data for May 23, 2022
Time Temperature Dew Point Pressure Wind Wind Speed Wind Gust Humidity Rainfall Rate (Hourly) solar
00:04 53.6 °F /  12 °C 51.8 °F /  11 °C 29.9in /  1011.48hPa Calm     95% 0in /  0mm 0 W/m2
00:09 53.6 °F /  12 °C 51.8 °F /  11 °C 29.9in /  1011.48hPa WNW 0.6mph /  1km/h   95% 0in /  0mm 0 W/m2
00:14 53.6 °F /  12 °C 51.8 °F /  11 °C 29.9in /  1011.45hPa Calm     95% 0in /  0mm 0 W/m2
00:19 53.6 °F /  12 °C 51.8 °F /  11 °C 29.9in /  1011.48hPa Calm     95% 0in /  0mm 0 W/m2
00:24 53.6 °F /  12 °C 51.8 °F /  11 °C 29.9in /  1011.51hPa Calm     95% 0in /  0mm 0 W/m2
00:29 51.8 °F /  11 °C 51.8 °F /  11 °C 29.9in /  1011.51hPa Calm     95% 0in /  0mm 0 W/m2
00:34 51.8 °F /  11 °C 51.8 °F /  11 °C 29.9in /  1011.51hPa Calm     95% 0in /  0mm 0 W/m2
00:39 51.8 °F /  11 °C 51.8 °F /  11 °C 29.9in /  1011.48hPa Calm     95% 0in /  0mm 0 W/m2
00:44 51.8 °F /  11 °C 51.8 °F /  11 °C 29.9in /  1011.48hPa Calm     95% 0in /  0mm 0 W/m2
00:49 51.8 °F /  11 °C 51.8 °F /  11 °C 29.9in /  1011.51hPa Calm     96% 0in /  0mm 0 W/m2
00:54 51.8 °F /  11 °C 51.8 °F /  11 °C 29.9in /  1011.55hPa Calm     96% 0in /  0mm 0 W/m2
00:59 51.8 °F /  11 °C 51.8 °F /  11 °C 29.9in /  1011.51hPa Calm     96% 0in /  0mm 0 W/m2
01:04 51.8 °F /  11 °C 51.8 °F /  11 °C 29.9in /  1011.45hPa Calm     96% 0in /  0mm 0 W/m2
01:09 51.8 °F /  11 °C 51.8 °F /  11 °C 29.9in /  1011.41hPa Calm     96% 0in /  0mm 0 W/m2
01:14 51.8 °F /  11 °C 51.8 °F /  11 °C 29.9in /  1011.38hPa Calm     96% 0in /  0mm 0 W/m2
01:19 51.8 °F /  11 °C 51.8 °F /  11 °C 29.9in /  1011.45hPa Calm     96% 0in /  0mm 0 W/m2
01:24 51.8 °F /  11 °C 51.8 °F /  11 °C 29.9in /  1011.38hPa Calm     96% 0in /  0mm 0 W/m2
01:29 51.8 °F /  11 °C 51.8 °F /  11 °C 29.9in /  1011.24hPa Calm     96% 0in /  0mm 0 W/m2
01:34 51.8 °F /  11 °C 51.8 °F /  11 °C 29.9in /  1011.18hPa Calm     96% 0in /  0mm 0 W/m2
01:39 51.8 °F /  11 °C 51.8 °F /  11 °C 29.9in /  1011.14hPa Calm     96% 0in /  0mm 0 W/m2
01:44 51.8 °F /  11 °C 51.8 °F /  11 °C 29.9in /  1011.18hPa Calm     96% 0in /  0mm 0 W/m2
01:49 51.8 °F /  11 °C 51.8 °F /  11 °C 29.9in /  1011.14hPa Calm     96% 0in /  0mm 0 W/m2
01:54 51.8 °F /  11 °C 51.8 °F /  11 °C 29.9in /  1011.14hPa Calm     96% 0in /  0mm 0 W/m2
01:59 51.8 °F /  11 °C 51.8 °F /  11 °C 29.9in /  1011.21hPa Calm     96% 0in /  0mm 0 W/m2
02:04 51.8 °F /  11 °C 51.8 °F /  11 °C 29.9in /  1011.18hPa Calm     96% 0in /  0mm 0 W/m2
02:09 51.8 °F /  11 °C 51.8 °F /  11 °C 29.9in /  1011.18hPa Calm     96% 0in /  0mm 0 W/m2
02:14 51.8 °F /  11 °C 51.8 °F /  11 °C 29.9in /  1011.18hPa Calm     96% 0in /  0mm 0 W/m2
02:19 51.8 °F /  11 °C 51.8 °F /  11 °C 29.9in /  1011.18hPa Calm     96% 0in /  0mm 0 W/m2
02:24 51.8 °F /  11 °C 51.8 °F /  11 °C 29.9in /  1011.07hPa Calm     96% 0in /  0mm 0 W/m2
02:29 51.8 °F /  11 °C 51.8 °F /  11 °C 29.9in /  1011.01hPa Calm     96% 0in /  0mm 0 W/m2
02:34 51.8 °F /  11 °C 51.8 °F /  11 °C 29.9in /  1010.94hPa Calm     96% 0in /  0mm 0 W/m2
02:39 51.8 °F /  11 °C 51.8 °F /  11 °C 29.9in /  1010.87hPa Calm     96% 0in /  0mm 0 W/m2
02:44 51.8 °F /  11 °C 51.8 °F /  11 °C 29.9in /  1010.84hPa Calm     96% 0in /  0mm 0 W/m2
02:49 51.8 °F /  11 °C 51.8 °F /  11 °C 29.9in /  1010.8hPa Calm     96% 0in /  0mm 0 W/m2
02:54 51.8 °F /  11 °C 51.8 °F /  11 °C 29.9in /  1010.8hPa Calm     96% 0in /  0mm 0 W/m2
02:59 51.8 °F /  11 °C 51.8 °F /  11 °C 29.9in /  1010.74hPa Calm     96% 0in /  0mm 0 W/m2
03:04 51.8 °F /  11 °C 51.8 °F /  11 °C 29.9in /  1010.74hPa Calm     97% 0in /  0mm 0 W/m2
03:09 51.8 °F /  11 °C 51.8 °F /  11 °C 29.8in /  1010.7hPa Calm     97% 0in /  0mm 0 W/m2
03:14 51.8 °F /  11 °C 51.8 °F /  11 °C 29.8in /  1010.63hPa Calm     97% 0in /  0mm 0 W/m2
03:19 51.8 °F /  11 °C 51.8 °F /  11 °C 29.8in /  1010.63hPa Calm     97% 0in /  0mm 0 W/m2
03:24 51.8 °F /  11 °C 51.8 °F /  11 °C 29.8in /  1010.57hPa Calm     97% 0in /  0mm 0 W/m2
03:29 51.8 °F /  11 °C 51.8 °F /  11 °C 29.8in /  1010.53hPa Calm     97% 0in /  0mm 0 W/m2
03:34 51.8 °F /  11 °C 51.8 °F /  11 °C 29.8in /  1010.57hPa Calm     97% 0in /  0mm 0 W/m2
03:39 51.8 °F /  11 °C 51.8 °F /  11 °C 29.8in /  1010.6hPa Calm     97% 0in /  0mm 0 W/m2
03:44 51.8 °F /  11 °C 51.8 °F /  11 °C 29.8in /  1010.63hPa Calm     97% 0in /  0mm 0 W/m2
03:49 51.8 °F /  11 °C 51.8 °F /  11 °C 29.8in /  1010.63hPa Calm     97% 0in /  0mm 0 W/m2
03:54 51.8 °F /  11 °C 51.8 °F /  11 °C 29.8in /  1010.57hPa Calm     97% 0in /  0mm 0 W/m2
03:59 51.8 °F /  11 °C 51.8 °F /  11 °C 29.8in /  1010.6hPa Calm     97% 0in /  0mm 0 W/m2
04:04 51.8 °F /  11 °C 51.8 °F /  11 °C 29.8in /  1010.57hPa Calm     97% 0in /  0mm 0 W/m2
04:09 51.8 °F /  11 °C 51.8 °F /  11 °C 29.8in /  1010.46hPa Calm     97% 0in /  0mm 0 W/m2
04:14 51.8 °F /  11 °C 51.8 °F /  11 °C 29.8in /  1010.4hPa Calm     97% 0in /  0mm 0 W/m2
04:19 53.6 °F /  12 °C 51.8 °F /  11 °C 29.8in /  1010.33hPa Calm     97% 0in /  0mm 0 W/m2
04:24 53.6 °F /  12 °C 51.8 °F /  11 °C 29.8in /  1010.3hPa Calm     97% 0in /  0mm 0 W/m2
04:29 53.6 °F /  12 °C 51.8 °F /  11 °C 29.8in /  1010.3hPa Calm     97% 0in /  0mm 0 W/m2
04:34 53.6 °F /  12 °C 51.8 °F /  11 °C 29.8in /  1010.26hPa Calm     97% 0in /  0mm 0 W/m2
04:39 51.8 °F /  11 °C 51.8 °F /  11 °C 29.8in /  1010.23hPa Calm     97% 0in /  0mm 0 W/m2
04:44 51.8 °F /  11 °C 51.8 °F /  11 °C 29.8in /  1010.16hPa Calm     97% 0in /  0mm 0 W/m2
04:49 51.8 °F /  11 °C 51.8 °F /  11 °C 29.8in /  1010.16hPa Calm     96% 0in /  0mm 0 W/m2
04:54 51.8 °F /  11 °C 51.8 °F /  11 °C 29.8in /  1010.16hPa Calm     96% 0in /  0mm 0 W/m2
04:59 53.6 °F /  12 °C 51.8 °F /  11 °C 29.8in /  1010.19hPa Calm     96% 0in /  0mm 5 W/m2
05:04 53.6 °F /  12 °C 51.8 °F /  11 °C 29.8in /  1010.13hPa Calm     96% 0in /  0mm 5 W/m2
05:09 53.6 °F /  12 °C 51.8 °F /  11 °C 29.8in /  1010.09hPa Calm     96% 0in /  0mm 7 W/m2
05:14 53.6 °F /  12 °C 51.8 °F /  11 °C 29.8in /  1009.99hPa Calm     96% 0in /  0mm 9 W/m2
05:19 53.6 °F /  12 °C 51.8 °F /  11 °C 29.8in /  1009.96hPa Calm     96% 0in /  0mm 12 W/m2
05:24 53.6 °F /  12 °C 51.8 °F /  11 °C 29.8in /  1009.92hPa Calm     96% 0in /  0mm 14 W/m2
05:29 53.6 °F /  12 °C 51.8 °F /  11 °C 29.8in /  1009.92hPa Calm     96% 0in /  0mm 18 W/m2
05:34 53.6 °F /  12 °C 51.8 °F /  11 °C 29.8in /  1009.92hPa Calm     96% 0in /  0mm 18 W/m2
05:39 53.6 °F /  12 °C 51.8 °F /  11 °C 29.8in /  1009.99hPa Calm     96% 0in /  0mm 18 W/m2
05:44 53.6 °F /  12 °C 51.8 °F /  11 °C 29.8in /  1009.99hPa Calm     96% 0in /  0mm 19 W/m2
05:49 53.6 °F /  12 °C 51.8 °F /  11 °C 29.8in /  1009.96hPa Calm     96% 0in /  0mm 23 W/m2
05:54 53.6 °F /  12 °C 51.8 °F /  11 °C 29.8in /  1009.92hPa Calm     96% 0in /  0mm 28 W/m2
05:59 53.6 °F /  12 °C 51.8 °F /  11 °C 29.8in /  1009.89hPa Calm     96% 0in /  0mm 32 W/m2
06:04 53.6 °F /  12 °C 51.8 °F /  11 °C 29.8in /  1009.85hPa Calm     96% 0in /  0mm 30 W/m2
06:09 53.6 °F /  12 °C 51.8 °F /  11 °C 29.8in /  1009.75hPa Calm     95% 0in /  0mm 35 W/m2
06:14 53.6 °F /  12 °C 51.8 °F /  11 °C 29.8in /  1009.69hPa SSE 1.2mph /  2km/h 4.3mph /  7km/h 95% 0in /  0mm 46 W/m2
06:19 53.6 °F /  12 °C 51.8 °F /  11 °C 29.8in /  1009.75hPa SSE 4.3mph /  7km/h 4.3mph /  7km/h 95% 0in /  0mm 49 W/m2
06:24 53.6 °F /  12 °C 51.8 °F /  11 °C 29.8in /  1009.75hPa SSE 5.6mph /  9km/h 4.3mph /  7km/h 95% 0in /  0mm 49 W/m2
06:29 53.6 °F /  12 °C 51.8 °F /  11 °C 29.8in /  1009.69hPa ESE 4.3mph /  7km/h 4.3mph /  7km/h 94% 0in /  0mm 47 W/m2
06:34 53.6 °F /  12 °C 51.8 °F /  11 °C 29.8in /  1009.58hPa SSE 4.3mph /  7km/h 3.7mph /  6km/h 94% 0in /  0mm 39 W/m2
06:39 53.6 °F /  12 °C 51.8 °F /  11 °C 29.8in /  1009.58hPa SSE 5.6mph /  9km/h 5mph /  8km/h 94% 0in /  0mm 40 W/m2
06:44 53.6 °F /  12 °C 51.8 °F /  11 °C 29.8in /  1009.55hPa SSE 5mph /  8km/h 4.3mph /  7km/h 94% 0in /  0mm 46 W/m2
06:49 53.6 °F /  12 °C 51.8 °F /  11 °C 29.8in /  1009.58hPa SSE 3.7mph /  6km/h 3.1mph /  5km/h 93% 0in /  0mm 56 W/m2
06:54 53.6 °F /  12 °C 51.8 °F /  11 °C 29.8in /  1009.55hPa SSE 5mph /  8km/h 6.2mph /  10km/h 93% 0in /  0mm 56 W/m2
06:59 53.6 °F /  12 °C 51.8 °F /  11 °C 29.8in /  1009.55hPa NE 6.8mph /  11km/h 5.6mph /  9km/h 93% 0in /  0mm 67 W/m2
07:04 53.6 °F /  12 °C 51.8 °F /  11 °C 29.8in /  1009.62hPa N 9.9mph /  16km/h 8.7mph /  14km/h 93% 0in /  0mm 70 W/m2
07:09 53.6 °F /  12 °C 51.8 °F /  11 °C 29.8in /  1009.52hPa NNE 10.6mph /  17km/h 9.9mph /  16km/h 92% 0in /  0mm 70 W/m2
07:14 53.6 °F /  12 °C 51.8 °F /  11 °C 29.8in /  1009.48hPa E 9.9mph /  16km/h 8.1mph /  13km/h 91% 0in /  0mm 69 W/m2
07:19 53.6 °F /  12 °C 51.8 °F /  11 °C 29.8in /  1009.48hPa NNE 11.2mph /  18km/h 9.3mph /  15km/h 91% 0in /  0mm 76 W/m2
07:24 53.6 °F /  12 °C 51.8 °F /  11 °C 29.8in /  1009.48hPa N 11.2mph /  18km/h 8.7mph /  14km/h 91% 0in /  0mm 81 W/m2
07:29 53.6 °F /  12 °C 51.8 °F /  11 °C 29.8in /  1009.38hPa N 10.6mph /  17km/h 9.9mph /  16km/h 91% 0in /  0mm 83 W/m2
07:34 53.6 °F /  12 °C 51.8 °F /  11 °C 29.8in /  1009.45hPa N 11.2mph /  18km/h 9.9mph /  16km/h 91% 0in /  0mm 81 W/m2
07:39 55.4 °F /  13 °C 51.8 °F /  11 °C 29.8in /  1009.45hPa N 9.9mph /  16km/h 8.7mph /  14km/h 90% 0in /  0mm 70 W/m2
07:44 55.4 °F /  13 °C 51.8 °F /  11 °C 29.8in /  1009.41hPa ESE 10.6mph /  17km/h 9.3mph /  15km/h 90% 0in /  0mm 100 W/m2
07:49 55.4 °F /  13 °C 51.8 °F /  11 °C 29.8in /  1009.38hPa NE 9.3mph /  15km/h 7.5mph /  12km/h 91% 0in /  0mm 109 W/m2
07:54 55.4 °F /  13 °C 51.8 °F /  11 °C 29.8in /  1009.38hPa NE 9.3mph /  15km/h 6.8mph /  11km/h 91% 0in /  0mm 105 W/m2
07:59 55.4 °F /  13 °C 51.8 °F /  11 °C 29.8in /  1009.38hPa SE 6.2mph /  10km/h 6.2mph /  10km/h 91% 0in /  0mm 76 W/m2
08:04 55.4 °F /  13 °C 51.8 °F /  11 °C 29.8in /  1009.38hPa NE 8.1mph /  13km/h 7.5mph /  12km/h 91% 0in /  0mm 74 W/m2
08:09 55.4 °F /  13 °C 51.8 °F /  11 °C 29.8in /  1009.38hPa ENE 6.8mph /  11km/h 5.6mph /  9km/h 90% 0in /  0mm 70 W/m2
08:14 55.4 °F /  13 °C 51.8 °F /  11 °C 29.8in /  1009.31hPa SE 8.1mph /  13km/h 6.2mph /  10km/h 90% 0in /  0mm 83 W/m2
08:19 55.4 °F /  13 °C 51.8 °F /  11 °C 29.8in /  1009.28hPa N 6.8mph /  11km/h 6.2mph /  10km/h 90% 0in /  0mm 86 W/m2
08:24 55.4 °F /  13 °C 51.8 °F /  11 °C 29.8in /  1009.28hPa NNE 9.3mph /  15km/h 7.5mph /  12km/h 90% 0in /  0mm 90 W/m2
08:29 55.4 °F /  13 °C 51.8 °F /  11 °C 29.8in /  1009.28hPa ENE 7.5mph /  12km/h 6.2mph /  10km/h 90% 0in /  0mm 93 W/m2
08:34 55.4 °F /  13 °C 51.8 °F /  11 °C 29.8in /  1009.25hPa N 5mph /  8km/h 5mph /  8km/h 90% 0in /  0mm 93 W/m2
08:39 55.4 °F /  13 °C 51.8 °F /  11 °C 29.8in /  1009.25hPa SSE 6.8mph /  11km/h 5.6mph /  9km/h 90% 0in /  0mm 93 W/m2
08:44 55.4 °F /  13 °C 51.8 °F /  11 °C 29.8in /  1009.21hPa NE 7.5mph /  12km/h 6.2mph /  10km/h 89% 0in /  0mm 93 W/m2
08:49 55.4 °F /  13 °C 51.8 °F /  11 °C 29.8in /  1009.18hPa SSE 6.2mph /  10km/h 5.6mph /  9km/h 89% 0in /  0mm 91 W/m2
08:54 55.4 °F /  13 °C 51.8 °F /  11 °C 29.8in /  1009.18hPa NW 6.2mph /  10km/h 5.6mph /  9km/h 89% 0in /  0mm 98 W/m2
08:59 55.4 °F /  13 °C 51.8 °F /  11 °C 29.8in /  1009.14hPa SE 4.3mph /  7km/h 4.3mph /  7km/h 90% 0in /  0mm 105 W/m2
09:04 55.4 °F /  13 °C 51.8 °F /  11 °C 29.8in /  1009.11hPa N 4.3mph /  7km/h 5mph /  8km/h 90% 0in /  0mm 107 W/m2
09:09 55.4 °F /  13 °C 51.8 °F /  11 °C 29.8in /  1009.11hPa SSE 3.1mph /  5km/h 3.1mph /  5km/h 90% 0in /  0mm 121 W/m2
09:14 55.4 °F /  13 °C 51.8 °F /  11 °C 29.8in /  1009.08hPa SSE 1.9mph /  3km/h 1.2mph /  2km/h 90% 0in /  0mm 128 W/m2
09:19 55.4 °F /  13 °C 51.8 °F /  11 °C 29.8in /  1009.01hPa SSE 3.7mph /  6km/h 3.1mph /  5km/h 90% 0in /  0mm 141 W/m2
09:24 55.4 °F /  13 °C 51.8 °F /  11 °C 29.8in /  1009.04hPa SSE 4.3mph /  7km/h 3.7mph /  6km/h 90% 0in /  0mm 151 W/m2
Compliments of Weather Underground - 2 mb